• In Latvia
  • List of Countries
  • For 7 days
  • Water Temperature
  • Satellite Maps
  • Weather Map
  • Weather Widgets
  • user-avatar
    Login

    Hourly Weather Bielasy

    Today, 15 August, Wednesday

    Time Temperature Precipitation Wind Pressure Humidity
    00:00 +16°C° 0.1 mm 1 mps 705 mmHg 90%
    01:00 +16°C° 0.1 mm 1 mps 705 mmHg 90%
    02:00 +16°C° 0 mm 1 mps 705 mmHg 91%
    03:00 +16°C° 0 mm 1 mps 706 mmHg 91%
    04:00 +15°C° 0 mm 1 mps 706 mmHg 91%
    05:00 +16°C° 0 mm 1 mps 706 mmHg 89%
    06:00 +17°C° 0 mm 2 mps 706 mmHg 87%
    07:00 +18°C° 0 mm 2 mps 707 mmHg 85%
    08:00 +18°C° 0.1 mm 2 mps 707 mmHg 81%
    09:00 +19°C° 0.1 mm 2 mps 708 mmHg 76%
    10:00 +20°C° 0.1 mm 3 mps 708 mmHg 71%
    11:00 +21°C° 0.1 mm 3 mps 708 mmHg 68%
    12:00 +22°C° 0.1 mm 3 mps 708 mmHg 64%
    13:00 +22°C° 0.1 mm 4 mps 708 mmHg 61%
    14:00 +22°C° 0.2 mm 4 mps 708 mmHg 62%
    15:00 +22°C° 0.2 mm 4 mps 708 mmHg 63%
    16:00 +22°C° 0.2 mm 4 mps 708 mmHg 64%
    17:00 +20°C° 0.1 mm 3 mps 708 mmHg 70%
    18:00 +19°C° 0.1 mm 2 mps 708 mmHg 76%
    19:00 +17°C° 0.1 mm 2 mps 708 mmHg 82%
    20:00 +18°C° 0 mm 1 mps 708 mmHg 84%
    21:00 +16°C° 0 mm 1 mps 708 mmHg 86%
    22:00 +15°C° 0 mm 1 mps 709 mmHg 88%
    23:00 +15°C° 0 mm 1 mps 709 mmHg 89%

    Tomorrow, 16 August, Thursday

    Time Temperature Precipitation Wind Pressure Humidity
    00:00 +15°C° 0 mm 1 mps 709 mmHg 90%
    01:00 +14°C° 0 mm 1 mps 709 mmHg 91%
    02:00 +14°C° 0 mm 1 mps 709 mmHg 92%
    03:00 +14°C° 0 mm 1 mps 709 mmHg 93%
    04:00 +14°C° 0 mm 1 mps 708 mmHg 93%
    05:00 +15°C° 0 mm 1 mps 709 mmHg 90%
    06:00 +16°C° 0 mm 1 mps 709 mmHg 87%
    07:00 +18°C° 0 mm 1 mps 709 mmHg 84%
    08:00 +19°C° 0 mm 1 mps 710 mmHg 77%
    09:00 +21°C° 0 mm 1 mps 710 mmHg 70%
    10:00 +22°C° 0 mm 1 mps 710 mmHg 64%
    11:00 +23°C° 0.1 mm 2 mps 710 mmHg 60%
    12:00 +24°C° 0.1 mm 2 mps 709 mmHg 57%
    13:00 +25°C° 0.1 mm 2 mps 709 mmHg 54%
    14:00 +25°C° 0 mm 2 mps 709 mmHg 55%
    15:00 +25°C° 0 mm 2 mps 709 mmHg 56%
    16:00 +24°C° 0 mm 2 mps 708 mmHg 57%
    17:00 +23°C° 0 mm 2 mps 708 mmHg 65%
    18:00 +20°C° 0 mm 2 mps 708 mmHg 73%
    19:00 +18°C° 0 mm 2 mps 708 mmHg 80%
    20:00 +18°C° 0 mm 2 mps 708 mmHg 83%
    21:00 +18°C° 0 mm 1 mps 708 mmHg 86%
    22:00 +16°C° 0 mm 1 mps 708 mmHg 89%
    23:00 +16°C° 0 mm 1 mps 708 mmHg 90%

    Day after tomorrow, 17 August, Friday

    Time Temperature Precipitation Wind Pressure Humidity
    00:00 +15°C° 0 mm 1 mps 708 mmHg 91%
    01:00 +15°C° 0 mm 1 mps 708 mmHg 91%
    02:00 +15°C° 0 mm 1 mps 707 mmHg 92%
    03:00 +14°C° 0 mm 1 mps 707 mmHg 92%
    04:00 +14°C° 0 mm 1 mps 707 mmHg 92%
    05:00 +16°C° 0 mm 1 mps 707 mmHg 87%
    06:00 +18°C° 0 mm 1 mps 708 mmHg 82%
    07:00 +19°C° 0 mm 1 mps 708 mmHg 78%
    08:00 +21°C° 0 mm 1 mps 708 mmHg 69%
    09:00 +23°C° 0 mm 2 mps 708 mmHg 61%
    10:00 +25°C° 0 mm 2 mps 709 mmHg 53%
    11:00 +26°C° 0 mm 2 mps 708 mmHg 51%
    12:00 +26°C° 0 mm 2 mps 708 mmHg 49%
    13:00 +27°C° 0 mm 1 mps 708 mmHg 47%
    14:00 +27°C° 0.1 mm 1 mps 708 mmHg 49%
    15:00 +26°C° 0.1 mm 1 mps 708 mmHg 51%
    16:00 +26°C° 0.1 mm 2 mps 708 mmHg 54%
    17:00 +24°C° 0.1 mm 1 mps 707 mmHg 62%
    18:00 +22°C° 0.1 mm 1 mps 707 mmHg 70%
    19:00 +20°C° 0.1 mm 1 mps 707 mmHg 79%
    20:00 +20°C° 0 mm 1 mps 707 mmHg 81%
    21:00 +19°C° 0 mm 1 mps 707 mmHg 84%
    22:00 +18°C° 0 mm 1 mps 707 mmHg 87%
    23:00 +18°C° 0 mm 1 mps 707 mmHg 88%

    18 August, Saturday

    Time Temperature Precipitation Wind Pressure Humidity
    00:00 +16°C° 0 mm 1 mps 707 mmHg 88%
    01:00 +16°C° 0 mm 1 mps 707 mmHg 89%
    02:00 +16°C° 0 mm 1 mps 708 mmHg 89%
    03:00 +16°C° 0 mm 1 mps 708 mmHg 89%
    04:00 +15°C° 0 mm 1 mps 708 mmHg 89%
    05:00 +16°C° 0 mm 0 mps 708 mmHg 85%
    06:00 +17°C° 0 mm 0 mps 709 mmHg 80%
    07:00 +19°C° 0 mm 0 mps 709 mmHg 76%
    08:00 +22°C° 0 mm 1 mps 709 mmHg 68%
    09:00 +24°C° 0 mm 1 mps 710 mmHg 60%
    10:00 +26°C° 0 mm 1 mps 710 mmHg 52%
    11:00 +26°C° 0 mm 2 mps 710 mmHg 50%
    12:00 +27°C° 0 mm 2 mps 710 mmHg 48%
    13:00 +27°C° 0 mm 2 mps 710 mmHg 47%
    14:00 +27°C° 0.1 mm 2 mps 710 mmHg 49%
    15:00 +26°C° 0.1 mm 2 mps 710 mmHg 51%
    16:00 +26°C° 0.1 mm 2 mps 710 mmHg 54%
    17:00 +24°C° 0.1 mm 2 mps 710 mmHg 61%
    18:00 +22°C° 0.1 mm 1 mps 709 mmHg 68%
    19:00 +21°C° 0.1 mm 1 mps 709 mmHg 75%
    20:00 +20°C° 0 mm 1 mps 710 mmHg 78%
    21:00 +19°C° 0 mm 1 mps 710 mmHg 80%
    22:00 +19°C° 0 mm 1 mps 710 mmHg 83%
    23:00 +18°C° 0 mm 1 mps 710 mmHg 85%

    19 August, Sunday

    Time Temperature Precipitation Wind Pressure Humidity
    00:00 +18°C° 0 mm 1 mps 710 mmHg 87%
    01:00 +16°C° 0 mm 1 mps 710 mmHg 89%
    02:00 +16°C° 0 mm 1 mps 710 mmHg 90%
    03:00 +16°C° 0 mm 1 mps 710 mmHg 91%
    04:00 +15°C° 0 mm 1 mps 710 mmHg 92%
    05:00 +18°C° 0 mm 1 mps 711 mmHg 88%
    06:00 +19°C° 0 mm 1 mps 711 mmHg 84%
    07:00 +20°C° 0 mm 1 mps 711 mmHg 80%
    08:00 +20°C° 0 mm 2 mps 712 mmHg 73%
    09:00 +21°C° 0 mm 2 mps 712 mmHg 67%
    10:00 +24°C° 0 mm 2 mps 712 mmHg 60%
    11:00 +24°C° 0.1 mm 2 mps 712 mmHg 56%
    12:00 +25°C° 0.1 mm 2 mps 712 mmHg 52%
    13:00 +26°C° 0.1 mm 3 mps 712 mmHg 48%
    14:00 +26°C° 0.1 mm 3 mps 711 mmHg 47%
    15:00 +25°C° 0.1 mm 3 mps 711 mmHg 46%
    16:00 +25°C° 0.1 mm 3 mps 711 mmHg 45%
    17:00 +23°C° 0 mm 2 mps 711 mmHg 50%
    18:00 +20°C° 0 mm 2 mps 711 mmHg 55%
    19:00 +19°C° 0 mm 1 mps 711 mmHg 61%
    20:00 +18°C° 0 mm 1 mps 711 mmHg 62%
    21:00 +16°C° 0 mm 1 mps 711 mmHg 63%
    22:00 +14°C° 0 mm 0 mps 711 mmHg 64%
    23:00 +14°C° 0 mm 0 mps 711 mmHg 65%

    20 August, Monday

    Time Temperature Precipitation Wind Pressure Humidity
    00:00 +15°C° 0 mm 1 mps 710 mmHg 65%
    01:00 +15°C° 0 mm 1 mps 710 mmHg 66%
    02:00 +14°C° 0 mm 1 mps 710 mmHg 67%
    03:00 +14°C° 0 mm 1 mps 710 mmHg 68%
    04:00 +14°C° 0 mm 1 mps 710 mmHg 70%
    05:00 +16°C° 0 mm 1 mps 711 mmHg 67%
    06:00 +18°C° 0 mm 1 mps 711 mmHg 64%
    07:00 +20°C° 0 mm 1 mps 712 mmHg 62%
    08:00 +21°C° 0 mm 1 mps 712 mmHg 57%
    09:00 +23°C° 0 mm 1 mps 712 mmHg 53%
    10:00 +25°C° 0 mm 2 mps 712 mmHg 48%
    11:00 +25°C° 0 mm 2 mps 712 mmHg 47%
    12:00 +26°C° 0 mm 2 mps 712 mmHg 46%
    13:00 +26°C° 0 mm 2 mps 712 mmHg 45%
    14:00 +26°C° 0 mm 2 mps 712 mmHg 46%
    15:00 +26°C° 0 mm 2 mps 712 mmHg 48%
    16:00 +26°C° 0 mm 3 mps 712 mmHg 49%
    17:00 +24°C° 0 mm 2 mps 711 mmHg 57%
    18:00 +21°C° 0 mm 2 mps 711 mmHg 65%
    19:00 +20°C° 0 mm 1 mps 711 mmHg 72%
    20:00 +19°C° 0 mm 1 mps 711 mmHg 75%
    21:00 +18°C° 0 mm 1 mps 711 mmHg 78%
    22:00 +16°C° 0 mm 0 mps 711 mmHg 80%
    23:00 +15°C° 0 mm 0 mps 711 mmHg 82%
    Show more